TimeCDT,TemperatureF,Dew PointF,Humidity,Sea Level PressureIn,VisibilityMPH,Wind Direction,Wind SpeedMPH,Gust SpeedMPH,PrecipitationIn,Events,Conditions,WindDirDegrees,DateUTC
12:53 AM,36.0,28.0,73,30.35,10.0,NW,3.5,-,N/A,,Clear,320,2012-10-27 05:53:00
1:53 AM,34.0,28.0,79,30.33,10.0,Calm,Calm,-,N/A,,Clear,0,2012-10-27 06:53:00
2:53 AM,32.0,27.0,82,30.32,10.0,WNW,3.5,-,N/A,,Clear,300,2012-10-27 07:53:00
3:53 AM,34.0,27.0,75,30.32,10.0,WNW,3.5,-,N/A,,Clear,300,2012-10-27 08:53:00
4:53 AM,33.1,27.0,78,30.34,10.0,WNW,3.5,-,N/A,,Clear,300,2012-10-27 09:53:00
5:53 AM,33.1,26.1,75,30.34,10.0,Calm,Calm,-,N/A,,Clear,0,2012-10-27 10:53:00
6:53 AM,30.0,26.1,85,30.35,10.0,NW,3.5,-,N/A,,Clear,320,2012-10-27 11:53:00
7:53 AM,30.0,26.1,85,30.36,10.0,NW,3.5,-,N/A,,Clear,310,2012-10-27 12:53:00
8:53 AM,34.0,27.0,75,30.37,10.0,NW,4.6,-,N/A,,Clear,310,2012-10-27 13:53:00
9:53 AM,39.0,27.0,62,30.36,10.0,North,8.1,-,N/A,,Clear,350,2012-10-27 14:53:00
10:53 AM,42.1,27.0,55,30.35,10.0,NNW,10.4,-,N/A,,Clear,340,2012-10-27 15:53:00
11:53 AM,45.0,27.0,49,30.34,10.0,NE,6.9,-,N/A,,Clear,40,2012-10-27 16:53:00
12:53 PM,46.0,26.1,46,30.31,10.0,Variable,4.6,-,N/A,,Clear,0,2012-10-27 17:53:00
1:53 PM,48.0,27.0,44,30.28,10.0,Variable,6.9,-,N/A,,Clear,0,2012-10-27 18:53:00
2:53 PM,48.9,27.0,43,30.25,10.0,NW,9.2,-,N/A,,Clear,320,2012-10-27 19:53:00
3:53 PM,48.0,27.0,44,30.25,10.0,NNW,4.6,-,N/A,,Clear,330,2012-10-27 20:53:00
5:53 PM,46.9,27.0,46,30.24,10.0,North,5.8,-,N/A,,Clear,10,2012-10-27 22:53:00
6:53 PM,44.1,27.0,51,30.25,10.0,North,6.9,-,N/A,,Clear,10,2012-10-27 23:53:00
7:53 PM,42.1,27.0,55,30.25,10.0,North,3.5,-,N/A,,Clear,360,2012-10-28 00:53:00
8:53 PM,39.9,27.0,60,30.26,10.0,North,4.6,-,N/A,,Clear,10,2012-10-28 01:53:00
9:53 PM,37.9,27.0,65,30.27,10.0,North,5.8,-,N/A,,Clear,350,2012-10-28 02:53:00
11:53 PM,39.9,27.0,60,30.27,10.0,North,5.8,-,N/A,,Clear,360,2012-10-28 04:53:00